Погода в Покровке

Погода в Покровке : погода сейчас, прогноз погоды и архив. Всё, что Вы хотите узнать о погоде в Покровке!

Поиск расширенной информации на нашем сайте:

Полезная информация: Марс, юпитер, венера, все это космос

Другие новости

Новости СМИ2

Главная страница сайта

Новости сайта

02.10.2013

Напоминаем, что на нашем новом сайте вы можете получить высокодетализированные прогнозы погоды по пунктам России, СНГ и мира (включающие важные для авиации метеовеличины, такие как направление и скорость ветра, видимость, явления погоды, количество и форма облачности, нижняя и верхняя граница облачности), а также ознакомиться с разнообразными материалами по авиационной метеорологии и подборкой полезных ссылок на эту тему.

Сайт Метеоцентр.Азия посвящён разработке технологий оптимизации авиаметеорологического обслуживания, включая проектирование и перспективное создание нескольких автоматизированных авиаметеорологических систем:
- система выпуска высокодетальных прогностических карт явлений погоды для нижнего воздушного пространства по России и ближнему зарубежью;
- система верификации прогнозов TAF (выпускаемых синоптиками официальных АМСГ РФ и ближнего зарубежья) и AUTOTAF (выпускаемых сайтом Метеоцентр.Азия) - выявление ошибок, онлайн-сопоставление с фактической погодой METAR, автоматическое внесение коррективов в прогнозы при резком отклонении фактической погоды от прогноза, подсчёт оправдываемости прогнозов по элементам и в целом;
- система обработки, анализа и отображения авиаметеорологической информации для применения провайдерами метеорологической информации.

Рекомендуем: заказать музыкантов

Погода в Покровке - сегодня

Время (UTC), дата Ветер
(°,м/с) 
Видим.   Явления Облачность Т
(°С)
Тd
(°С)
f(%) Тe
(°С)
Pmin
(гПа)
dP
(гПа)
Po
(мм)
O2
(г/м3)
Тmin Tmax R s Состояние
почвы
00 24.04.17 170 (Ю) 4000 м  дымка  6/3 300 м верхняя 
[St|Ci fib]
+6.9 +6.2 95 +6  1018.5  761  298  +2.8         
03 24.04.17 190 (Ю) 20000 м    10/0 средняя, верхняя 
[Ac trans|Cs]
+12.1 +5.6 64 +11  1016.8  -1.7  759  292           
06 24.04.17 170 (Ю) 4{12}  20000 м    10/0 средняя 
[As op]
+7 +5 87 +6  1016.3  -0.6  759  297           
09 24.04.17 150 (ЮВ) 20000 м  {дождь}  10/8 600 м средняя 
[Sc|As op]
+6.8 +4.6 86 +6  1014.3  -1.9  757  297    +12.9  0.0     
12 24.04.17 190 (Ю) 20000 м  {дождь}  10/0 средняя 
[As op]
+7.1 +6 93 +5  1014.7  0.4  758  297           
15 24.04.17 180 (Ю) 10 км  слаб. дождь  10/4 300 м средняя 
[Frnb|As op]
+7 +6.1 94 +6  1014.1  -0.6  757  297           
18 24.04.17 170 (Ю) 10 км  слаб. дождь  10/0 средняя 
[As op]
+6.6 +5.8 95 +6  1013.4  -0.6  757  297           
21 24.04.17 170 (Ю) 20000 м  {дождь}  10/0 средняя, верхняя 
[Ac trans|Ci fib]
+5.6 +4.8 95 +5  1013.6  0.1  757  298  +5.6    0.0    влажная 
00 25.04.17 170 (Ю) 20000 м  {дождь}  3/3 300 м средняя, верхняя 
[St|Ac trans|Ci fib]
+8.6 +5.9 83 +8  1014.2  0.7  757  295           
03 25.04.17 190 (Ю) 20000 м    8/5 600 м кучево-дожд., верхняя 
[Cb cap|Ci fib]
+13.7 +1.1 42 +13  1012.8  -1.4  756  290           
06 25.04.17 190 (Ю) 4{12}  20000 м  {ливн. осадки}  10/8 600 м кучево-дожд., верхняя 
[Cb cap|Ci fib]
+14.1 -1.3 35 +14  1012  -0.8  756  290           
12 25.04.17 210 (ЮЗ) 2{14}  20000 м  в посл. час ливневой дождь  10/10 600 м кучево-дожд. 
[Cb cap]
+8.3 +1.2 61 +8  1015.4  1.7  758  296           
15 25.04.17 190 (Ю) 20000 м    4/0 верхняя 
[Ci fib]
+6 +0.2 66 +6  1015.3  -0.1  758  299           
18 25.04.17 170 (Ю) 20000 м    8/0 верхняя 
[Ci fib]
+3.5 -0.4 76 +2  1014.1  -1.2  757  301           
00 26.04.17 160 (Ю) 20000 м    10/0 верхняя 
[Ci fib]
+10.1 +1.1 54 +10  1011.6  -1.4  755  293           
03 26.04.17 210 (ЮЗ) 2{16}  20000 м  {ливн. осадки}  10/6 600 м кучево-дожд., верхняя 
[Cb cap|Ci fib]
+11.2 +2.3 54 +11  1009.7  -1.8  754  292           
06 26.04.17 300 (СЗ) 7-18{17}  20000 м  {ливн. осадки}  10/8 600 м кучево-дожд., верхняя 
[Cb cap|Ci fib]
+12.8 -0.7 39 +12  1007.7  -2  753  290           
09 26.04.17 330 (СЗ) 6{18}  20000 м  {ливн. осадки}  10/10 600 м кучево-дожд. 
[Cb cap]
+9.5 +1.2 56 +8  1008.4  0.7  753  293    +13.7  0.7     
12 26.04.17 260 (З) 1{12}  20000 м  {ливн. осадки}  10/4 600 м кучево-дожд., верхняя 
[Cb cap|Ci fib]
+5.8 +2.2 78 +7  1009.6  1.1  754  297           
15 26.04.17 170 (Ю) 20000 м    10/6 600 м кучево-дожд., верхняя 
[Cb cap|Ci fib]
+5.8 +2.2 78 +6  1008.4  -1.1  753  297           
18 26.04.17 240 (ЮЗ) 20000 м    10/10 600 м кучево-дожд. 
[Cb cap]
+5.8 +0.4 68 +7  1006.7  -1.8  752  297           
21 26.04.17 310 (СЗ) 20000 м    10/8 600 м верхняя 
[Sc diur, vesp|Ci fib]
+5.9 +0.8 70 +7  1005.5  -1.1  751  296  +5    0.0    влажная 
00 27.04.17 330 (СЗ) 20000 м    10/3 600 м верхняя 
[Sc diur, vesp|Ci fib]
+9.7 +1.5 57 +9  1004.8  -0.7  750  292           
03 27.04.17 300 (СЗ) 9-16{16}  20000 м  слаб. ливневой дождь  10/8 600 м кучево-дожд., верхняя 
[Cb cap|Ci fib]
+10.9 +1.2 51 +9  1003.4  -1.3  749  290           
06 27.04.17 050 (СВ) 1{16}  20000 м  {ливн. осадки}  9/6 600 м кучево-дожд., верхняя 
[Cb cap|Ci fib]
+11.8 +2.7 54 +13  1002.7  -0.8  749  289           
Время (UTC), дата Ветер
(°,м/с) 
Видим.   Явления Облачность Т
(°С)
Тd
(°С)
f(%) Тe
(°С)
Pmin
(гПа)
dP
(гПа)
Po
(мм)
O2
(г/м3)
Тmin Tmax R s Состояние
почвы

Для получения пояснительной информации подведите курсор к названию столбца.

ПОГОДА в Покровке - архив

Всё, что Вы хотите узнать о погоде в Покровке - удобно и подробно!

Выберите нужную дату (начиная с 1 января 2015* года) и нажмите кнопку "Найти".
Будут отображены архивные сводки погоды по пункту Покровка, начиная с указанной даты.


Отображать данные в формате CSV (для использования в таблицах Excel)


Внимание! Наш архив погоды предназначен исключительно для личного некоммерческого использования в познавательных целях. Если Вам необходимы официальные справки о состоянии погоды (для производственных, юридических, коммерческих и т.п. целей), обращайтесь в органы Росгидромета.

*Примечание: данная дата относится к архиву по метеостанциям СССР (Россия, СНГ, Балтия).
Архив по метеостанциям Зарубежной Европы и Азии (кроме Китая) хранится 10 дней, по другим регионам земного шара (Китай, Африка, Америка, Австралия, Океания) - 1 день.

Покровка - район местоположения метеостанции


Название, широта, долгота, высота метеостанции:
Покровка 43.9°ш. 131.7°д. 61 м над ур. моря [Российская Федерация]

Дополнительная информация

В oтличие oт бoльшинства пoгoдных сайтoв мы публикуем пoдрoбную метеoинфoрмацию в детальнoм прoфессиoнальнoм фoрмате.

Характеристики температуры и влажнoсти вoздуха измеряются на высoте 2 м в тени вдали oт зданий и деревьев.
Скoрoсть ветра измеряется на высoте 10 м (на урoвне рoста челoвека скoрoсть ветра ниже в 1.5-2 раза). Если метеoстанция нахoдится в гoрoде или в лесу, тo скoрoсть ветра занижена на 2-4 м/с пo сравнению с oткрытым местoм. Скoрoсть ветра над акватoриями крупных рек и oзёр, а также на вершинах хoлмoв на 2-5 м/с выше, чем в oбычных услoвиях.
Атмoсфернoе давление в разных тoчках местнoсти мoжет значительнo oтличаться oт давления на метеoстанции, в зависимoсти oт услoвий рельефа (при пoдъёме на 10 м давление пoнижается примернo на 1 мм рт.ст.).